Monterey, CA

11:04 PM PDT on April 23, 2017 (GMT -0700)
Monterey Peninsula

Weather History for KMRY - October, 2011

Change the Weather History Date:

Thursday, October 27, 2011

  Actual Average Record
Temperature  
Mean Temperature 57 °F 58 °F  
Max Temperature 69 °F 66 °F 88 °F (2003)
Min Temperature 45 °F 49 °F 43 °F (2010)
Degree Days  
Heating Degree Days 8    
Month to date heating degree days 118  
Since 1 July heating degree days 529  
Cooling Degree Days 0    
Month to date cooling degree days 18  
Year to date cooling degree days 33  
Growing Degree Days 7 (Base 50)    
Moisture  
Dew Point 36 °F    
Average Humidity 47    
Maximum Humidity 62    
Minimum Humidity 31    
Precipitation  
Precipitation 0.00 in - 0.26 in (2016)
Month to date precipitation 2.16  
Year to date precipitation 15.07  
Since 1 July precipitation 2.28  
Sea Level Pressure  
Sea Level Pressure 30.07 in    
Wind  
Wind Speed 3 mph (ENE)    
Max Wind Speed 12 mph    
Max Gust Speed 15 mph    
Visibility 10 miles    
Events      
T = Trace of Precipitation, MM = Missing Value Source: NWS Daily Summary

Daily Weather History Graph

Daily Weather History Graph

Search for Another Location

Airport or City:

Trip Planner

Search our weather history database for the weather conditions in past years. The results will help you decide how hot, cold, wet, or windy it might be!

Date:

Astronomy

Oct. 27, 2011 Rise Set
Actual Time 7:25 AM PDT 6:16 PM PDT
Civil Twilight 6:59 AM PDT 6:42 PM PDT
Nautical Twilight 6:28 AM PDT 7:12 PM PDT
Astronomical Twilight 5:58 AM PDT 7:42 PM PDT
Moon 8:31 AM PDT (10/27) 6:53 PM PDT (10/27)
Length of Visible Light 11h 43m
Length of Day
10h 50m
New Moon, 1% of the Moon is Illuminated
Oct 27
New Moon
Nov 2
First Quarter
Nov 10
Full
Nov 18
Last Quarter
Nov 24
New

Hourly Weather History & Observations

Time (PDT) Temp. Windchill Dew Point Humidity Pressure Visibility Wind Dir Wind Speed Gust Speed Precip Events Conditions
12:54 AM 53.6 °F - 33.8 °F 47% 30.06 in 10.0 mi ENE 3.5 mph - N/A   Clear
1:54 AM 50.0 °F - 34.0 °F 54% 30.10 in 10.0 mi ESE 4.6 mph - N/A   Clear
2:54 AM 48.0 °F - 33.1 °F 56% 30.09 in 10.0 mi East 3.5 mph - N/A   Clear
3:54 AM 46.9 °F - 33.1 °F 59% 30.09 in 10.0 mi Calm Calm - N/A   Clear
4:54 AM 46.9 °F - 32.0 °F 56% 30.08 in 10.0 mi East 5.8 mph - N/A   Clear
5:54 AM 46.0 °F 43.9 °F 30.9 °F 56% 30.09 in 10.0 mi East 4.6 mph - N/A   Clear
6:54 AM 46.9 °F - 30.0 °F 52% 30.08 in 10.0 mi East 4.6 mph - N/A   Clear
7:54 AM 48.0 °F - 28.9 °F 48% 30.08 in 10.0 mi East 8.1 mph - N/A   Clear
8:54 AM 55.9 °F - 30.9 °F 39% 30.08 in 10.0 mi East 4.6 mph - N/A   Clear
9:54 AM 60.1 °F - 35.1 °F 39% 30.09 in 10.0 mi West 3.5 mph - N/A   Clear
10:54 AM 63.0 °F - 37.0 °F 38% 30.09 in 10.0 mi WSW 3.5 mph - N/A   Clear
11:54 AM 64.9 °F - 37.9 °F 37% 30.08 in 10.0 mi WSW 6.9 mph - N/A   Clear
12:54 PM 66.0 °F - 39.9 °F 38% 30.07 in 10.0 mi West 8.1 mph - N/A   Clear
1:54 PM 64.0 °F - 34.0 °F 33% 30.07 in 10.0 mi NW 5.8 mph - N/A   Clear
2:54 PM 64.9 °F - 42.1 °F 43% 30.06 in 10.0 mi NW 4.6 mph - N/A   Clear
3:54 PM 64.9 °F - 45.0 °F 48% 30.05 in 10.0 mi WNW 4.6 mph - N/A   Clear
4:54 PM 68.0 °F - 41.0 °F 37% 30.05 in 10.0 mi North 3.5 mph - N/A   Clear
5:54 PM 64.4 °F - 39.2 °F 40% 30.01 in 10.0 mi Calm Calm - N/A   Clear
6:54 PM 59.0 °F - 46.9 °F 64% 30.07 in 10.0 mi Calm Calm - N/A   Clear
7:54 PM 55.9 °F - 41.0 °F 57% 30.07 in 10.0 mi Calm Calm - N/A   Clear
8:54 PM 53.1 °F - 36.0 °F 52% 30.08 in 10.0 mi Calm Calm - N/A   Clear
9:54 PM 51.1 °F - 36.0 °F 56% 30.08 in 10.0 mi East 4.6 mph - N/A   Clear
10:54 PM 51.1 °F - 36.0 °F 56% 30.09 in 10.0 mi Calm Calm - N/A   Clear
11:54 PM 51.1 °F - 36.0 °F 56% 30.09 in 10.0 mi Calm Calm - N/A   Clear